Weather History for Owensboro, KY

Change the Weather History Date:

Tuesday, February 5, 2013

  Actual Average Record
Temperature  
Mean Temperature 43 °F -  
Max Temperature 54 °F 44 °F 70 °F (2008)
Min Temperature 32 °F 25 °F 2 °F (1966)
Degree Days  
Heating Degree Days 22    
Moisture  
Dew Point 35 °F    
Average Humidity 82    
Maximum Humidity 100    
Minimum Humidity 55    
Precipitation  
Precipitation 0.00 in - - ()
Sea Level Pressure  
Sea Level Pressure 29.97 in    
Wind  
Wind Speed 7 mph (WNW)    
Max Wind Speed 13 mph    
Max Gust Speed -    
Visibility 8 miles    
Events      
Averages and records for this station are not official NWS values.
T = Trace of Precipitation, MM = Missing Value Source: NWS Daily Summary

Daily Weather History Graph

Daily Weather History Graph

Search for Another Location

Airport:

Trip Planner

Search our weather history database for the weather conditions in past years. The results will help you decide how hot, cold, wet, or windy it might be!

Date:

Astronomy

Feb. 05, 2013 Rise Set
Actual Time 6:48 AM CST 5:17 PM CST
Civil Twilight 6:21 AM CST 5:44 PM CST
Nautical Twilight 5:50 AM CST 6:15 PM CST
Astronomical Twilight 5:19 AM CST 6:46 PM CST
Moon 2:28 AM CST (2/5) 12:36 PM CST (2/5)
Length of Visible Light 11h 23m
Length of Day
10h 28m
Waning Crescent, 26% of the Moon is Illuminated
Feb 5
Waning Crescent
Feb 10
New
Feb 17
First Quarter
Feb 25
Full
Mar 4
Last Quarter

Hourly Weather History & Observations

Time (CST) Temp. Windchill Dew Point Humidity Pressure Visibility Wind Dir Wind Speed Gust Speed Precip Events Conditions
12:36 AM 41.0 °F 35.8 °F 39.2 °F 93% 29.92 in 8.0 mi WNW 8.1 mph - N/A   Overcast
12:56 AM 39.9 °F 35.1 °F 39.9 °F 100% 29.92 in 6.0 mi West 6.9 mph - N/A   Overcast
1:27 AM 39.2 °F 35.0 °F 39.2 °F 100% 29.92 in 3.0 mi WNW 5.8 mph - N/A   Overcast
1:56 AM 39.9 °F 35.8 °F 37.9 °F 93% 29.93 in 9.0 mi NNW 5.8 mph - N/A   Overcast
2:28 AM 37.4 °F 32.1 °F 35.6 °F 93% 29.92 in 10.0 mi NNW 6.9 mph - N/A   Overcast
2:56 AM 36.9 °F 29.1 °F 34.9 °F 93% 29.94 in 10.0 mi NW 11.5 mph - N/A   Overcast
3:56 AM 36.0 °F 30.3 °F 32.9 °F 89% 29.95 in 10.0 mi NNW 6.9 mph - N/A   Overcast
4:44 AM 33.8 °F 30.8 °F 32.0 °F 93% 29.94 in 9.0 mi NW 3.5 mph - N/A   Scattered Clouds
4:56 AM 34.0 °F 31.0 °F 32.0 °F 92% 29.95 in 8.0 mi NW 3.5 mph - N/A   Clear
5:24 AM 33.8 °F 28.6 °F 32.0 °F 93% 29.95 in 7.0 mi NW 5.8 mph - N/A   Mostly Cloudy
6:56 AM 32.0 °F - 31.1 °F 96% 29.99 in 5.0 mi Calm Calm - N/A   Overcast
7:56 AM 32.0 °F - 30.0 °F 92% 30.01 in 5.0 mi Calm Calm - N/A   Mostly Cloudy
8:56 AM 34.0 °F 29.8 °F 31.1 °F 89% 30.03 in 5.0 mi Variable 4.6 mph - N/A   Mostly Cloudy
10:56 AM 41.0 °F 34.3 °F 36.0 °F 82% 30.01 in 5.0 mi South 11.5 mph - N/A   Haze
11:56 AM 41.9 °F 35.4 °F 36.9 °F 82% 29.98 in 5.0 mi South 11.5 mph - N/A   Haze
12:56 PM 46.9 °F - 38.8 °F 73% 29.95 in 6.0 mi SW 9.2 mph - N/A   Haze
1:56 PM 50.9 °F - 37.9 °F 61% 29.94 in 10.0 mi WSW 10.4 mph - N/A   Clear
2:56 PM 54.9 °F - 38.8 °F 55% 29.92 in 10.0 mi WSW 10.4 mph - N/A   Clear
3:56 PM 54.9 °F - 38.8 °F 55% 29.92 in 10.0 mi WSW 12.7 mph - N/A   Clear
5:56 PM 45.9 °F 42.9 °F 34.9 °F 66% 29.96 in 10.0 mi West 5.8 mph - N/A   Clear
6:56 PM 43.0 °F - 34.9 °F 73% 29.98 in 10.0 mi Calm Calm - N/A   Clear
7:56 PM 43.0 °F - 34.0 °F 71% 30.01 in 10.0 mi Calm Calm - N/A   Clear
8:56 PM 41.9 °F 39.0 °F 34.0 °F 73% 30.04 in 10.0 mi NNW 4.6 mph - N/A   Clear
9:56 PM 39.9 °F 37.8 °F 34.0 °F 79% 30.06 in 10.0 mi NW 3.5 mph - N/A   Clear
10:56 PM 41.0 °F 35.8 °F 34.0 °F 76% 30.09 in 10.0 mi NNW 8.1 mph - N/A   Clear
11:56 PM 39.9 °F 36.7 °F 32.9 °F 76% 30.11 in 10.0 mi North 4.6 mph - N/A   Clear